2023-054AM (56213 NORAD) Tracking and Keplerian Element Data

This shows tracking and keplerian element data for the satellite.

Feedback or suggestion? Click here.




ElementValue
Catalog56213
Name2023-054AM
Epoch Orbit386
Epoch Day126.674315
Epoch Year2023
RAAN22.2354
Inclination97.4059
Eccentricity0.0015898
Argument of Perigee145.4365
Mean Anonmoly214.7909
Mean Motion15.23653226
Decay Rate0.00023197
L11 56213U 23054AM 23126.67431500 .00023197 00000+0 96509-3 0 9994
L22 56213 97.4059 22.2354 0015898 145.4365 214.7909 15.23653226 3864



Live tracking and technical data element details for 2023-054AM (NORAD 56213). 2023-054AM can be tracked NOW for your location showing map with azimuth and elevation plus other details from your city location.







IsCatalogInMostPopularTable: catalog: 56213, numindb: 12
Update: records affected: 1



GetName: 56213 2023-054AM

Hit Count: updated at: Wed, 07 Jun 2023 09:14:44 GMT